Eagle Creek, IN

9:27 AM EDT on October 17, 2017 (GMT -0400)
Eagle Creek

Weather History for KEYE - October, 2012

Change the Weather History Date:

Saturday, October 13, 2012

  Actual Average Record
Temperature  
Mean Temperature 55 °F 56 °F  
Max Temperature 68 °F 65 °F 78 °F (2008)
Min Temperature 42 °F 46 °F 32 °F (2006)
Degree Days  
Heating Degree Days 10 10  
Month to date heating degree days 171 104  
Since 1 July heating degree days 272 165  
Cooling Degree Days 0 0  
Month to date cooling degree days 0 12  
Year to date cooling degree days 1338 1055  
Growing Degree Days 4 (Base 50)    
Moisture  
Dew Point 48 °F    
Average Humidity 73    
Maximum Humidity 87    
Minimum Humidity 58    
Precipitation  
Precipitation 0.01 in 0.10 in 0.79 in (2004)
Month to date precipitation 1.96 1.34  
Year to date precipitation 31.22 32.24  
Sea Level Pressure  
Sea Level Pressure 30.13 in    
Wind  
Wind Speed 6 mph (SSE)    
Max Wind Speed 13 mph    
Max Gust Speed 20 mph    
Visibility 9 miles    
Events Rain    
T = Trace of Precipitation, MM = Missing Value Source: NWS Daily Summary

Daily Weather History Graph

Daily Weather History Graph

Search for Another Location

Airport or City:

Trip Planner

Search our weather history database for the weather conditions in past years. The results will help you decide how hot, cold, wet, or windy it might be!

Date:

Astronomy

Oct. 13, 2012 Rise Set
Actual Time 7:53 AM EDT 7:07 PM EDT
Civil Twilight 7:26 AM EDT 7:35 PM EDT
Nautical Twilight 6:55 AM EDT 8:06 PM EDT
Astronomical Twilight 6:24 AM EDT 8:37 PM EDT
Moon 5:43 AM EDT (10/13) 5:51 PM EDT (10/13)
Length of Visible Light 12h 08m
Length of Day
11h 14m
Waning Crescent, 5% of the Moon is Illuminated
Oct 13
Waning Crescent
Oct 15
New
Oct 21
First Quarter
Oct 29
Full
Nov 6
Last Quarter

Hourly Weather History & Observations

Time (EDT) Temp. Windchill Dew Point Humidity Pressure Visibility Wind Dir Wind Speed Gust Speed Precip Events Conditions
12:53 AM 43.0 °F - 30.9 °F 62% 30.30 in 10.0 mi Calm Calm - N/A   Clear
1:53 AM 43.0 °F - 32.0 °F 65% 30.30 in 9.0 mi Calm Calm - N/A   Clear
2:53 AM 44.1 °F 42.5 °F 30.9 °F 60% 30.29 in 10.0 mi SE 3.5 mph - N/A   Clear
3:53 AM 44.1 °F 41.5 °F 33.1 °F 65% 30.28 in 10.0 mi SE 4.6 mph - N/A   Clear
4:53 AM 45.0 °F 41.8 °F 33.1 °F 63% 30.25 in 10.0 mi SE 5.8 mph - N/A   Partly Cloudy
5:53 AM 45.0 °F 41.8 °F 34.0 °F 65% 30.24 in 10.0 mi SE 5.8 mph - N/A   Clear
6:53 AM 46.0 °F 43.1 °F 35.1 °F 66% 30.22 in 10.0 mi Variable 5.8 mph - N/A   Partly Cloudy
7:53 AM 46.0 °F 43.9 °F 36.0 °F 68% 30.23 in 10.0 mi SSE 4.6 mph - N/A   Overcast
8:53 AM 48.0 °F - 37.9 °F 68% 30.21 in 10.0 mi SSE 5.8 mph - N/A   Overcast
9:53 AM 50.0 °F - 39.9 °F 68% 30.19 in 10.0 mi SSE 5.8 mph - N/A   Clear
10:53 AM 54.0 °F - 43.0 °F 66% 30.17 in 10.0 mi Variable 4.6 mph - N/A   Clear
11:53 AM 57.0 °F - 46.0 °F 67% 30.14 in 10.0 mi South 6.9 mph - N/A   Clear
12:53 PM 60.1 °F - 50.0 °F 69% 30.14 in 10.0 mi SSW 8.1 mph - N/A   Clear
1:41 PM 62.6 °F - 55.4 °F 77% 30.10 in 10.0 mi South 5.8 mph - N/A   Overcast
2:25 PM 64.4 °F - 55.4 °F 73% 30.08 in 10.0 mi South 5.8 mph - N/A   Mostly Cloudy
2:53 PM 64.0 °F - 57.0 °F 78% 30.06 in 9.0 mi South 8.1 mph - N/A   Overcast
3:02 PM 64.4 °F - 57.2 °F 77% 30.05 in 10.0 mi SSE 4.6 mph - N/A   Overcast
3:26 PM 66.2 °F - 59.0 °F 78% 30.05 in 9.0 mi South 6.9 mph - N/A   Overcast
4:27 PM 66.2 °F - 60.8 °F 83% 30.03 in 8.0 mi South 8.1 mph - N/A   Mostly Cloudy
4:53 PM 66.9 °F - 60.1 °F 79% 30.02 in 5.0 mi South 5.8 mph - 0.01 in Rain Light Rain
5:21 PM 66.2 °F - 62.6 °F 88% 30.02 in 7.0 mi South 3.5 mph - 0.00 in   Overcast
5:53 PM 66.0 °F - 61.0 °F 84% 30.01 in 7.0 mi SSE 4.6 mph - 0.00 in   Overcast
6:53 PM 66.0 °F - 62.1 °F 87% 30.00 in 8.0 mi Calm Calm - N/A   Overcast
8:53 PM 66.9 °F - 62.1 °F 84% 29.94 in 9.0 mi Variable 6.9 mph - N/A   Clear
10:53 PM 68.0 °F - 61.0 °F 78% 29.97 in 10.0 mi SSW 6.9 mph - N/A   Clear